[ ตารางข้อมูล ] [ Min-Max ] [ วันนี้4 ] [ วันนี้2 ] [ เทียบ3วัน A ] [ เทียบ4วัน B ]   

วันนี้2   [ ◀ ช่วงเก่ากว่า ] [ ช่วงที่ 194 ] [ ช่วงใหม่กว่า ▶ ] [ ล่าสุด ]    [ 3 ชั่วโมง ] [ 6 ชั่วโมง ] [ 12 ชั่วโมง ] [ 24 ชั่วโมง ]   วันนี้2

อุณภูมิตู้ Knockdown4529  ราย 6 ชั่วโมง  ที่วัดได้ ในช่วงวันเวลา 16/03/2026 (16:25) ถึง 16/03/2026 (22:25) 
ความชื้นในตู้ Knockdown4529  ราย 6 ชั่วโมง  ที่วัดได้ ในช่วงวันเวลา 16/03/2026 (16:25) ถึง 16/03/2026 (22:25) 

 
DS18B20SHTC3 
IDDate d/m/Y & Timedata1
สูง
data2
ต่ำ
data3
นอก
temp
pcb
hum
pcb
Time
 3128  16/03/2026 22:22:20  28.6  28.6  27.7  28.6  71.8  22:22 
 3127  16/03/2026 22:17:38  28.6  28.6  27.8  28.6  71.8  22:17 
 3126  16/03/2026 22:12:56  28.6  28.7  27.8  28.4  71.8  22:12 
 3125  16/03/2026 22:08:15  28.6  28.7  27.9  28.3  71.8  22:08 
 3124  16/03/2026 22:03:34  28.6  28.7  27.9  28.6  71.8  22:03 
 3123  16/03/2026 21:58:50  28.6  28.7  27.9  28.5  71.8  21:58 
 3122  16/03/2026 21:54:09  28.6  28.8  27.9  28.7  71.7  21:54 
 3121  16/03/2026 21:49:28  28.7  28.8  27.9  28.4  71.7  21:49 
 3120  16/03/2026 21:44:46  28.7  28.8  27.9  28.7  71.8  21:44 
 3119  16/03/2026 21:40:02  28.7  28.8  27.9  28.7  71.8  21:40 
 3118  16/03/2026 21:35:20  28.8  28.8  27.9  28.7  71.8  21:35 
 3117  16/03/2026 21:30:39  28.8  28.8  28.0  28.8  71.7  21:30 
 3116  16/03/2026 21:25:57  28.8  28.8  28.0  28.8  71.8  21:25 
 3115  16/03/2026 21:21:16  28.8  28.8  28.0  28.5  71.7  21:21 
 3114  16/03/2026 21:16:34  28.8  28.8  27.9  28.7  71.7  21:16 
 3113  16/03/2026 21:11:52  28.8  28.9  27.9  28.9  71.8  21:11 
 3112  16/03/2026 21:07:10  28.8  28.9  27.9  28.7  71.8  21:07 
 3111  16/03/2026 21:02:28  28.8  28.9  27.9  28.8  71.9  21:02 
 3110  16/03/2026 20:57:46  28.8  28.9  27.9  28.8  71.7  20:57 
 3109  16/03/2026 20:53:05  28.9  28.9  27.9  28.9  71.7  20:53 
 3108  16/03/2026 20:48:24  28.9  28.9  27.9  28.9  71.8  20:48 
 3107  16/03/2026 20:43:42  28.9  29.0  28.0  28.8  71.7  20:43 
 3106  16/03/2026 20:39:00  28.9  29.0  28.0  28.8  71.7  20:39 
 3105  16/03/2026 20:34:19  28.9  29.0  27.9  28.9  71.7  20:34 

Data every 5 minute.


ใช้เวลาประมวลผล 0.00305 วินาที